Time,TemperatureF,DewpointF,PressureIn,WindDirection,WindDirectionDegrees,WindSpeedMPH,WindSpeedGustMPH,Humidity,HourlyPrecipIn,Conditions,Clouds,dailyrainin,SoftwareType,DateUTC
2013-06-26 00:02:00,74.0,67.0,29.76,SSE,156,0.0,7.0,79,0.00,,,0.01,,2013-06-26 05:02:00,
2013-06-26 00:11:00,74.0,67.0,29.76,SE,126,1.0,5.0,78,0.00,,,0.01,,2013-06-26 05:11:00,
2013-06-26 00:22:00,74.0,66.0,29.75,East,91,1.0,5.0,76,0.00,,,0.01,,2013-06-26 05:22:00,
2013-06-26 00:34:00,74.0,66.0,29.75,East,91,1.0,5.0,76,0.00,,,0.01,,2013-06-26 05:34:00,
2013-06-26 00:43:00,74.0,66.0,29.75,SE,126,0.0,6.0,77,0.00,,,0.01,,2013-06-26 05:43:00,
2013-06-26 00:52:00,73.0,66.0,29.74,SE,131,0.0,9.0,78,0.00,,,0.01,,2013-06-26 05:52:00,
2013-06-26 01:02:00,73.0,66.0,29.74,SE,131,0.0,9.0,78,0.00,,,0.01,,2013-06-26 06:02:00,
2013-06-26 01:11:00,73.0,66.0,29.73,SSE,162,0.0,8.0,79,0.00,,,0.01,,2013-06-26 06:11:00,
2013-06-26 01:22:00,73.0,66.0,29.72,SE,124,0.0,7.0,80,0.00,,,0.01,,2013-06-26 06:22:00,
2013-06-26 01:34:00,73.0,66.0,29.72,SE,124,0.0,7.0,80,0.00,,,0.01,,2013-06-26 06:34:00,
2013-06-26 01:43:00,73.0,67.0,29.72,SE,134,2.0,8.0,82,0.00,,,0.01,,2013-06-26 06:43:00,
2013-06-26 01:53:00,72.0,67.0,29.72,SE,130,4.0,8.0,83,0.00,,,0.01,,2013-06-26 06:53:00,
2013-06-26 02:01:00,72.0,67.0,29.72,SE,130,4.0,8.0,83,0.00,,,0.01,,2013-06-26 07:01:00,
2013-06-26 02:11:00,72.0,67.0,29.72,SE,132,2.0,8.0,84,0.00,,,0.01,,2013-06-26 07:11:00,
2013-06-26 02:22:00,72.0,67.0,29.72,SE,134,1.0,6.0,85,0.00,,,0.01,,2013-06-26 07:22:00,
2013-06-26 02:33:00,72.0,67.0,29.72,SE,134,1.0,6.0,85,0.00,,,0.01,,2013-06-26 07:33:00,
2013-06-26 02:43:00,72.0,68.0,29.71,SE,134,1.0,5.0,86,0.00,,,0.01,,2013-06-26 07:43:00,
2013-06-26 02:53:00,72.0,68.0,29.70,ESE,122,2.0,7.0,87,0.00,,,0.01,,2013-06-26 07:53:00,
2013-06-26 03:01:00,72.0,68.0,29.70,ESE,122,2.0,7.0,87,0.00,,,0.01,,2013-06-26 08:01:00,
2013-06-26 03:11:00,72.0,68.0,29.70,ESE,123,1.0,8.0,88,0.00,,,0.01,,2013-06-26 08:11:00,
2013-06-26 03:22:00,73.0,69.0,29.69,SSE,150,1.0,8.0,87,0.00,,,0.01,,2013-06-26 08:22:00,
2013-06-26 03:33:00,73.0,69.0,29.69,SSE,150,1.0,8.0,87,0.00,,,0.01,,2013-06-26 08:33:00,
2013-06-26 03:42:00,73.0,69.0,29.67,ESE,115,2.0,5.0,87,0.00,,,0.01,,2013-06-26 08:42:00,
2013-06-26 03:52:00,73.0,69.0,29.67,West,276,2.0,6.0,88,0.00,,,0.01,,2013-06-26 08:52:00,
2013-06-26 04:01:00,73.0,69.0,29.67,West,276,2.0,6.0,88,0.00,,,0.01,,2013-06-26 09:01:00,
2013-06-26 04:11:00,73.0,69.0,29.68,ESE,103,2.0,9.0,88,0.00,,,0.01,,2013-06-26 09:11:00,
2013-06-26 04:22:00,73.0,69.0,29.67,East,98,4.0,10.0,88,0.00,,,0.01,,2013-06-26 09:22:00,
2013-06-26 04:33:00,73.0,69.0,29.67,East,98,4.0,10.0,88,0.00,,,0.01,,2013-06-26 09:33:00,
2013-06-26 04:43:00,73.0,69.0,29.68,SE,131,3.0,8.0,88,0.00,,,0.01,,2013-06-26 09:43:00,
2013-06-26 04:53:00,73.0,69.0,29.68,SE,144,0.0,8.0,88,0.00,,,0.01,,2013-06-26 09:53:00,
2013-06-26 05:01:00,73.0,69.0,29.68,SE,144,0.0,8.0,88,0.00,,,0.01,,2013-06-26 10:01:00,
2013-06-26 05:12:00,72.0,69.0,29.69,SE,139,1.0,7.0,89,0.00,,,0.01,,2013-06-26 10:12:00,
2013-06-26 05:22:00,72.0,69.0,29.69,SE,134,2.0,7.0,90,0.00,,,0.01,,2013-06-26 10:22:00,
2013-06-26 05:34:00,72.0,69.0,29.69,SE,134,2.0,7.0,90,0.00,,,0.01,,2013-06-26 10:34:00,
2013-06-26 05:43:00,72.0,69.0,29.70,SE,140,0.0,6.0,90,0.00,,,0.01,,2013-06-26 10:43:00,
2013-06-26 05:53:00,72.0,69.0,29.70,East,100,3.0,7.0,90,0.00,,,0.01,,2013-06-26 10:53:00,
2013-06-26 06:02:00,72.0,69.0,29.70,East,100,3.0,7.0,90,0.00,,,0.01,,2013-06-26 11:02:00,
2013-06-26 06:11:00,73.0,70.0,29.69,SSE,147,2.0,8.0,89,0.00,,,0.01,,2013-06-26 11:11:00,
2013-06-26 06:22:00,73.0,70.0,29.69,South,186,2.0,8.0,89,0.00,,,0.01,,2013-06-26 11:22:00,
2013-06-26 06:33:00,73.0,70.0,29.69,South,186,2.0,8.0,89,0.00,,,0.01,,2013-06-26 11:33:00,
2013-06-26 06:44:00,73.0,70.0,29.70,SE,128,1.0,5.0,89,0.00,,,0.01,,2013-06-26 11:44:00,
2013-06-26 06:52:00,73.0,70.0,29.70,West,262,2.0,7.0,90,0.00,,,0.01,,2013-06-26 11:52:00,
2013-06-26 07:02:00,73.0,70.0,29.70,West,262,2.0,7.0,90,0.00,,,0.01,,2013-06-26 12:02:00,
2013-06-26 07:12:00,73.0,70.0,29.69,West,259,0.0,2.0,90,0.00,,,0.01,,2013-06-26 12:12:00,
2013-06-26 07:22:00,73.0,70.0,29.68,WSW,250,0.0,2.0,91,0.01,,,0.02,,2013-06-26 12:22:00,
2013-06-26 07:33:00,73.0,70.0,29.68,WSW,250,0.0,2.0,91,0.01,,,0.02,,2013-06-26 12:33:00,
2013-06-26 07:42:00,72.0,70.0,29.65,SE,140,1.0,6.0,92,0.02,,,0.03,,2013-06-26 12:42:00,
2013-06-26 07:52:00,72.0,70.0,29.65,SE,129,2.0,6.0,92,0.02,,,0.03,,2013-06-26 12:52:00,
2013-06-26 08:02:00,72.0,70.0,29.65,SE,129,2.0,6.0,92,0.02,,,0.03,,2013-06-26 13:02:00,
2013-06-26 08:11:00,72.0,70.0,29.66,ESE,123,0.0,5.0,93,0.03,,,0.04,,2013-06-26 13:11:00,
2013-06-26 08:22:00,72.0,70.0,29.67,SE,126,1.0,4.0,93,0.02,,,0.04,,2013-06-26 13:22:00,
2013-06-26 08:34:00,72.0,70.0,29.67,SE,126,1.0,4.0,93,0.02,,,0.04,,2013-06-26 13:34:00,
2013-06-26 08:42:00,71.0,68.0,29.68,SE,138,2.0,7.0,91,0.02,,,0.05,,2013-06-26 13:42:00,
2013-06-26 09:02:00,70.0,67.0,29.68,West,277,3.0,12.0,89,0.03,,,0.06,,2013-06-26 14:02:00,
2013-06-26 09:12:00,70.0,67.0,29.68,East,98,2.0,6.0,89,0.02,,,0.06,,2013-06-26 14:12:00,
2013-06-26 09:24:00,70.0,67.0,29.67,SSE,164,1.0,6.0,89,0.02,,,0.05,,2013-06-26 14:24:00,
2013-06-26 09:34:00,70.0,67.0,29.67,SSE,164,1.0,6.0,89,0.02,,,0.05,,2013-06-26 14:34:00,
2013-06-26 09:42:00,70.0,67.0,29.70,West,259,3.0,6.0,89,0.01,,,0.05,,2013-06-26 14:42:00,
2013-06-26 09:53:00,70.0,66.0,29.70,WSW,244,2.0,8.0,88,0.00,,,0.05,,2013-06-26 14:53:00,
2013-06-26 10:02:00,70.0,66.0,29.70,WSW,244,2.0,8.0,88,0.00,,,0.05,,2013-06-26 15:02:00,
2013-06-26 10:11:00,71.0,67.0,29.72,NNW,330,4.0,7.0,86,0.00,,,0.05,,2013-06-26 15:11:00,
2013-06-26 10:22:00,71.0,66.0,29.71,WNW,283,2.0,5.0,85,0.00,,,0.05,,2013-06-26 15:22:00,
2013-06-26 10:34:00,71.0,66.0,29.71,WNW,283,2.0,5.0,85,0.00,,,0.05,,2013-06-26 15:34:00,
2013-06-26 10:44:00,71.0,67.0,29.71,West,278,0.0,5.0,86,0.00,,,0.05,,2013-06-26 15:44:00,
2013-06-26 10:53:00,72.0,67.0,29.70,WSW,254,1.0,6.0,84,0.00,,,0.05,,2013-06-26 15:53:00,
2013-06-26 11:01:00,72.0,67.0,29.70,WSW,254,1.0,6.0,84,0.00,,,0.05,,2013-06-26 16:01:00,
2013-06-26 11:11:00,72.0,67.0,29.70,WSW,249,1.0,4.0,83,0.00,,,0.05,,2013-06-26 16:11:00,
2013-06-26 11:22:00,73.0,67.0,29.71,WSW,257,0.0,5.0,82,0.00,,,0.05,,2013-06-26 16:22:00,
2013-06-26 11:34:00,73.0,67.0,29.71,WSW,257,0.0,5.0,82,0.00,,,0.05,,2013-06-26 16:34:00,
2013-06-26 11:43:00,73.0,67.0,29.71,WSW,254,1.0,5.0,82,0.00,,,0.05,,2013-06-26 16:43:00,
2013-06-26 11:52:00,74.0,67.0,29.71,WNW,294,3.0,6.0,79,0.00,,,0.05,,2013-06-26 16:52:00,
2013-06-26 12:02:00,74.0,67.0,29.71,WNW,294,3.0,6.0,79,0.00,,,0.05,,2013-06-26 17:02:00,
2013-06-26 12:11:00,75.0,67.0,29.71,North,350,2.0,7.0,77,0.00,,,0.05,,2013-06-26 17:11:00,
2013-06-26 12:23:00,77.0,68.0,29.72,NNW,343,3.0,8.0,75,0.00,,,0.05,,2013-06-26 17:23:00,
2013-06-26 12:33:00,77.0,68.0,29.72,NNW,343,3.0,8.0,75,0.00,,,0.05,,2013-06-26 17:33:00,
2013-06-26 12:43:00,78.0,69.0,29.70,WSW,245,2.0,6.0,73,0.00,,,0.05,,2013-06-26 17:43:00,
2013-06-26 12:52:00,79.0,69.0,29.70,WSW,248,1.0,6.0,71,0.00,,,0.05,,2013-06-26 17:52:00,
2013-06-26 13:01:00,79.0,69.0,29.70,WSW,248,1.0,6.0,71,0.00,,,0.05,,2013-06-26 18:01:00,
2013-06-26 13:11:00,79.0,70.0,29.69,ESE,111,2.0,7.0,73,0.00,,,0.05,,2013-06-26 18:11:00,
2013-06-26 13:22:00,80.0,70.0,29.69,SW,228,1.0,5.0,71,0.00,,,0.05,,2013-06-26 18:22:00,
2013-06-26 13:34:00,80.0,70.0,29.69,SW,228,1.0,5.0,71,0.00,,,0.05,,2013-06-26 18:34:00,
2013-06-26 13:43:00,80.0,70.0,29.69,SSE,165,1.0,3.0,71,0.00,,,0.05,,2013-06-26 18:43:00,
2013-06-26 13:52:00,80.0,71.0,29.70,West,259,2.0,7.0,74,0.00,,,0.05,,2013-06-26 18:52:00,
2013-06-26 14:02:00,80.0,71.0,29.70,West,259,2.0,7.0,74,0.00,,,0.05,,2013-06-26 19:02:00,
2013-06-26 14:11:00,80.0,71.0,29.70,West,261,2.0,10.0,73,0.00,,,0.05,,2013-06-26 19:11:00,
2013-06-26 14:22:00,80.0,71.0,29.69,WSW,251,1.0,10.0,74,0.00,,,0.05,,2013-06-26 19:22:00,
2013-06-26 14:33:00,80.0,71.0,29.69,WSW,251,1.0,10.0,74,0.00,,,0.05,,2013-06-26 19:33:00,
2013-06-26 14:42:00,81.0,72.0,29.70,SW,219,3.0,10.0,73,0.00,,,0.05,,2013-06-26 19:42:00,
2013-06-26 14:52:00,81.0,72.0,29.70,WSW,243,4.0,11.0,74,0.00,,,0.05,,2013-06-26 19:52:00,
2013-06-26 15:01:00,81.0,72.0,29.70,WSW,243,4.0,11.0,74,0.00,,,0.05,,2013-06-26 20:01:00,
2013-06-26 15:12:00,81.0,72.0,29.70,WSW,250,2.0,9.0,73,0.00,,,0.05,,2013-06-26 20:12:00,
2013-06-26 15:33:00,82.0,72.0,29.69,West,262,1.0,7.0,72,0.00,,,0.05,,2013-06-26 20:33:00,
2013-06-26 15:43:00,83.0,73.0,29.68,SW,214,0.0,7.0,71,0.00,,,0.05,,2013-06-26 20:43:00,
2013-06-26 15:52:00,83.0,73.0,29.68,SW,214,0.0,7.0,71,0.00,,,0.05,,2013-06-26 20:52:00,
2013-06-26 16:02:00,84.0,72.0,29.68,West,261,3.0,6.0,67,0.00,,,0.05,,2013-06-26 21:02:00,
2013-06-26 16:11:00,84.0,71.0,29.68,WNW,286,3.0,11.0,66,0.00,,,0.05,,2013-06-26 21:11:00,
2013-06-26 16:23:00,84.0,71.0,29.68,WNW,286,3.0,11.0,66,0.00,,,0.05,,2013-06-26 21:23:00,
2013-06-26 16:33:00,84.0,70.0,29.68,NW,305,4.0,8.0,64,0.00,,,0.05,,2013-06-26 21:33:00,
2013-06-26 16:43:00,84.0,71.0,29.68,North,350,3.0,8.0,65,0.00,,,0.05,,2013-06-26 21:43:00,
2013-06-26 16:52:00,84.0,71.0,29.68,North,350,3.0,8.0,65,0.00,,,0.05,,2013-06-26 21:52:00,
2013-06-26 17:01:00,84.0,71.0,29.68,NW,322,2.0,7.0,65,0.00,,,0.05,,2013-06-26 22:01:00,
2013-06-26 17:11:00,84.0,71.0,29.68,NW,324,4.0,8.0,66,0.00,,,0.05,,2013-06-26 22:11:00,
2013-06-26 17:34:00,83.0,69.0,29.67,WNW,302,5.0,8.0,62,0.00,,,0.05,,2013-06-26 22:34:00,
2013-06-26 17:43:00,83.0,69.0,29.68,NNW,342,5.0,10.0,63,0.00,,,0.05,,2013-06-26 22:43:00,
2013-06-26 17:52:00,83.0,69.0,29.68,NNW,342,5.0,10.0,63,0.00,,,0.05,,2013-06-26 22:52:00,
2013-06-26 18:02:00,83.0,69.0,29.67,NNW,343,4.0,9.0,62,0.00,,,0.05,,2013-06-26 23:02:00,
2013-06-26 18:11:00,83.0,69.0,29.67,NNW,343,4.0,9.0,62,0.00,,,0.05,,2013-06-26 23:11:00,
2013-06-26 18:34:00,83.0,70.0,29.67,NNW,336,2.0,7.0,64,0.00,,,0.05,,2013-06-26 23:34:00,
2013-06-26 18:43:00,83.0,70.0,29.67,NNW,332,2.0,7.0,65,0.00,,,0.05,,2013-06-26 23:43:00,
2013-06-26 18:53:00,83.0,70.0,29.67,NNW,332,2.0,7.0,65,0.00,,,0.05,,2013-06-26 23:53:00,
2013-06-26 19:01:00,83.0,70.0,29.67,NW,325,2.0,5.0,66,0.00,,,0.05,,2013-06-27 00:01:00,
2013-06-26 19:11:00,82.0,69.0,29.67,NW,307,2.0,5.0,66,0.00,,,0.05,,2013-06-27 00:11:00,
2013-06-26 19:22:00,82.0,69.0,29.67,NW,307,2.0,5.0,66,0.00,,,0.05,,2013-06-27 00:22:00,
2013-06-26 19:33:00,82.0,70.0,29.67,WNW,293,0.0,4.0,68,0.00,,,0.05,,2013-06-27 00:33:00,
2013-06-26 19:42:00,82.0,71.0,29.67,NNW,328,2.0,5.0,70,0.00,,,0.05,,2013-06-27 00:42:00,
2013-06-26 19:53:00,82.0,71.0,29.67,NNW,328,2.0,5.0,70,0.00,,,0.05,,2013-06-27 00:53:00,
2013-06-26 20:01:00,82.0,71.0,29.67,NNW,328,2.0,5.0,70,0.00,,,0.05,,2013-06-27 01:01:00,
2013-06-26 20:11:00,81.0,71.0,29.67,NNW,336,0.0,3.0,71,0.00,,,0.05,,2013-06-27 01:11:00,
2013-06-26 20:21:00,81.0,71.0,29.67,NNW,336,0.0,3.0,71,0.00,,,0.05,,2013-06-27 01:21:00,
2013-06-26 20:32:00,81.0,71.0,29.67,NNW,336,0.0,3.0,71,0.00,,,0.05,,2013-06-27 01:32:00,
2013-06-26 20:43:00,80.0,71.0,29.68,NNW,336,0.0,1.0,74,0.00,,,0.05,,2013-06-27 01:43:00,
2013-06-26 20:53:00,80.0,71.0,29.68,NNW,336,0.0,1.0,74,0.00,,,0.05,,2013-06-27 01:53:00,
2013-06-26 21:01:00,80.0,71.0,29.68,NNW,336,0.0,1.0,74,0.00,,,0.05,,2013-06-27 02:01:00,
2013-06-26 21:11:00,80.0,71.0,29.69,NNW,336,0.0,1.0,75,0.00,,,0.05,,2013-06-27 02:11:00,
2013-06-26 21:22:00,80.0,71.0,29.69,NNW,336,0.0,1.0,75,0.00,,,0.05,,2013-06-27 02:22:00,
2013-06-26 21:32:00,80.0,71.0,29.69,NNW,336,0.0,1.0,75,0.00,,,0.05,,2013-06-27 02:32:00,
2013-06-26 21:42:00,80.0,71.0,29.69,NNW,336,0.0,1.0,75,0.00,,,0.05,,2013-06-27 02:42:00,
2013-06-26 22:02:00,77.0,71.0,29.69,NNW,336,0.0,0.0,82,0.00,,,0.05,,2013-06-27 03:02:00,
2013-06-26 22:11:00,77.0,71.0,29.69,NNW,336,0.0,0.0,82,0.00,,,0.05,,2013-06-27 03:11:00,
2013-06-26 22:21:00,77.0,71.0,29.69,NNW,336,0.0,0.0,82,0.00,,,0.05,,2013-06-27 03:21:00,
2013-06-26 22:32:00,77.0,71.0,29.69,NNW,336,0.0,0.0,83,0.00,,,0.05,,2013-06-27 03:32:00,
2013-06-26 22:42:00,77.0,71.0,29.69,NNW,336,0.0,0.0,83,0.00,,,0.05,,2013-06-27 03:42:00,
2013-06-26 22:52:00,77.0,71.0,29.70,NNW,336,0.0,0.0,81,0.00,,,0.05,,2013-06-27 03:52:00,
2013-06-26 23:01:00,77.0,71.0,29.70,NNW,336,0.0,0.0,81,0.00,,,0.05,,2013-06-27 04:01:00,
2013-06-26 23:11:00,77.0,71.0,29.70,NNW,336,0.0,0.0,81,0.00,,,0.05,,2013-06-27 04:11:00,
2013-06-26 23:32:00,77.0,71.0,29.71,NNW,336,0.0,0.0,83,0.00,,,0.05,,2013-06-27 04:32:00,
2013-06-26 23:42:00,76.0,72.0,29.71,NNW,336,0.0,0.0,86,0.00,,,0.05,,2013-06-27 04:42:00,
2013-06-26 23:53:00,76.0,72.0,29.71,NNW,336,0.0,0.0,86,0.00,,,0.05,,2013-06-27 04:53:00,